Location: Unspecified
(43.8175°N, 0.0000°E)
Time: 18:36:18
(UTC+00:00)

IRAS dewar cover - Visible Passes

Search period start: 04 April 2026 00:00
Search period end: 14 April 2026 00:00
Orbit: 864 x 888 km, 99.0° (Epoch: 29 March)

Date Brightness Start Highest point End Pass type
(mag) Time Alt. Az. Time Alt. Az. Time Alt. Az.
4 Apr 10.2 03:36:36 10° E 03:40:12 18° ENE 03:43:46 10° NNE visible
4 Apr 9.6 19:21:12 10° N 19:25:53 28° WNW 19:30:32 10° WSW visible
5 Apr 10.3 03:32:30 10° E 03:35:50 16° ENE 03:39:10 10° NNE visible
5 Apr 9.4 19:16:41 10° N 19:21:29 31° WNW 19:26:16 10° WSW visible
6 Apr 10.4 03:28:25 10° E 03:31:29 15° NE 03:34:31 10° NNE visible
6 Apr 9.3 19:12:10 10° N 19:17:06 33° WNW 19:22:00 10° SW visible
7 Apr 10.5 03:24:23 10° E 03:27:07 14° NE 03:29:50 10° NNE visible
7 Apr 7.5 05:01:47 10° SSE 05:07:26 82° ENE 05:13:05 10° NNW visible
7 Apr 9.1 19:07:40 10° N 19:12:42 36° WNW 19:17:42 10° SW visible
8 Apr 10.6 03:20:24 10° E 03:22:45 13° NE 03:25:06 10° NNE visible
8 Apr 9.0 19:03:10 10° N 19:08:18 39° WNW 19:13:23 10° SW visible
9 Apr 10.7 03:16:31 10° ENE 03:18:24 12° NE 03:20:17 10° NE visible
9 Apr 7.7 04:52:59 10° SSE 04:58:36 70° ENE 05:04:12 10° N visible
9 Apr 8.8 18:58:41 10° N 19:03:54 42° WNW 19:09:05 10° SW visible
10 Apr 10.7 03:12:49 10° ENE 03:14:03 11° NE 03:15:16 10° NE visible
10 Apr 7.9 04:48:36 10° SSE 04:54:10 64° ENE 04:59:44 10° N visible
11 Apr 8.0 04:44:14 10° SSE 04:49:45 59° ENE 04:55:16 10° N visible
12 Apr 8.2 04:39:52 10° SE 04:45:20 54° ENE 04:50:48 10° N visible
13 Apr 8.4 04:35:31 10° SE 04:40:55 50° ENE 04:46:19 10° N visible
